SCP
0 0 0 0 0 0 0 0 0 -0 -0 -0 -0 -0 -0 0 0 0 0 0 0 0 0 0 -0 -0 0 0 0 0 0 0 0 0 0 0 0 0 0 0 0 0 0 -0
0 -0 0 0 0 0 0 0 -0 -0 -0 -0 -0 -0 -0 0 0 0 0 0 0 0 0 -0 -0 -0 -0 0 0 0 0 0 0 0 0 0 0 0 0 0 0 0 0 0
-0 -0 -0 -0 -0 0 0 -0 -0 -0 -0 -0 -0 -0 -0 -0 0 0 0 0 0 0 0 0 -0 -0 -0 -0 0 0 -0 0 0 0 0 0 0 0 0 0 0 0 0 0
0 -0 -0 0 0 0 0 0 0 -0 -0 -0 -0 -0 -0 0 0 0 0 0 0 0 0 0 0 0 0 -0 -0 -0 -0 -0 0 0 0 0 0 0 0 0 0 0 0 0
0 0 0 0 0 0 0 0 0 -0 0 -0 -0 -0 -0 0 0 0 0 0 0 0 0 0 0 0 -0 -0 -0 -0 -0 -0 -0 -0 -0 -0 -0 0 0 0 0 0 0 0
0 0 0 0 0 0 0 0 0 0 0 0 0 0 0 0 0 0 0 0 0 0 0 0 0 0 0 -0 -0 0 0 -0 -0 -0 -0 -0 -0 -0 0 0 0 -0 0 0
-0 0 0 0 0 0 0 0 0 0 0 0 0 0 0 0 0 0 0 0 0 0 0 0 0 0 0 0 0 -0 -0 -0 -0 -0 -0 -0 -0 0 0 0 0 0 0 0
0 0 0 0 -0 0 0 0 0 0 0 0 0 0 0 0 0 0 0 0 0 0 0 0 0 0 -0 -0 -0 0 -0 -0 -0 -0 -0 -0 0 0 -0 0 0 0 0 0
0 0 0 -0 0 -0 -0 0 0 0 0 0 0 0 0 0 0 0 0 0 0 0 0 0 0 0 -0 -0 0 0 0 -0 -0 -0 -0 -0 0 -0 -0 0 0 0 0 0
0 0 0 0 0 0 0 0 -0 0 0 0 0 0 0 0 0 0 0 0 0 0 0 0 0 0 -0 0 0 0 0 -0 -0 -0 -0 -0 0 0 0 0 0 0 0 0
0 0 0 0 -0 -0 -0 0 0 0 0 0 0 0 0 0 0 0 0 0 0 0 0 0 0 0 0 0 0 0 0 0 0 0 -0 0 0 0 0 0 0 0 0 0
0 -0 0 0 -0 -0 -0 0 0 0 0 0 0 0 0 0 0 0 0 0 0 0 0 0 0 0 0 0 0 0 0 0 0 0 0 0 0 0 0 0 0 0 0 0
0 0 0 -0 0 0 0 0 -0 0 0 0 0 0 0 0 0 0 0 0 0 0 0 0 0 0 0 0 0 0 0 0 0 0 0 0 0 0 0 0 -0 0 0 0
-0 0 0 0 -0 0 -0 0 0 0 0 0 0 0 0 0 0 0 0 0 0 0 0 0 0 0 0 0 0 0 0 0 0 0 0 0 0 0 0 0 0 0 0 0
0 0 -0 -0 -0 -0 -0 -0 0 0 0 0 0 0 0 0 0 0 0 0 0 0 0 0 0 0 0 0 0 0 0 0 0 0 0 0 0 0 0 0 0 0 0 0
0 -0 0 0 0 -0 -0 0 0 0 0 0 0 0 0 0 0 0 0 0 0 0 0 0 0 0 0 0 0 0 0 0 0 0 0 0 0 0 0 0 0 0 0 0
-0 -0 -0 0 0 -0 0 0 0 0 0 0 0 0 0 0 0 0 0 0 0 0 0 0 0 0 0 0 0 0 0 0 0 0 0 0 0 0 0 0 0 0 0 0
-0 -0 -0 -0 0 -0 0 0 0 0 0 0 0 0 0 0 0 0 0 0 0 0 0 0 0 0 0 0 0 0 0 0 0 0 0 0 0 0 0 0 0 0 0 0
-0 -0 -0 -0 -0 0 0 0 0 0 0 0 0 0 0 0 0 0 0 0 0 0 0 0 0 0 0 0 0 0 0 0 0 0 0 0 0 0 0 0 0 0 0 0
-0 -0 -0 -0 -0 -0 -0 0 -0 -0 0 0 0 0 0 0 0 0 0 0 0 0 0 0 0 0 0 0 0 0 0 0 0 0 0 0 0 0 0 0 0 0 0 0
-0 -0 -0 -0 -0 -0 -0 -0 0 0 0 0 0 0 0 0 0 0 0 0 0 0 0 0 0 0 0 0 0 0 0 0 0 0 0 0 0 0 0 0 0 0 0 0
-0 0 0 -0 -0 -0 -0 -0 -0 0 0 0 0 0 0 0 0 0 0 0 0 0 0 0 0 0 0 0 0 0 0 0 0 0 0 0 0 0 0 0 0 0 0 0
0 0 0 0 -0 -0 -0 -0 -0 -0 0 0 0 0 0 0 0 0 0 0 0 0 0 0 0 0 0 0 0 0 0 0 0 0 0 0 0 0 0 0 0 0 0 0
0 0 0 0 -0 -0 -0 -0 -0 -0 -0 -0 0 0 0 0 0 0 0 0 0 0 0 0 0 0 0 0 0 0 0 0 0 0 0 0 0 0 0 0 0 0 0 0
-0 -0 0 0 -0 -0 -0 -0 -0 -0 -0 -0 0 0 0 0 0 0 0 0 0 0 0 0 0 0 0 0 0 0 0 0 0 0 0 0 0 0 0 0 0 0 0 0
-0 -0 0 -0 -0 -0 -0 -0 -0 -0 -0 -0 -0 -0 0 0 0 0 0 0 0 0 0 0 0 0 0 0 0 0 0 0 0 0 0 0 0 0 0 0 0 0 0 0
-0 -0 0 0 0 -0 -0 -0 -0 -0 -0 -0 -0 -0 -0 -0 0 0 0 0 0 0 0 0 0 0 0 0 0 0 0 0 0 0 0 0 0 0 0 0 0 0 0 0
Wind_Speed_500mb
16 24 23 25 29 27 24 20 16 9 14 8 36 31 34 53 57 58 21 28 39 53 54 57 60 61 59 54 48 42 41 31 27 22 19 16 18 29 28 26 21 15 10 3
16 24 29 32 30 32 37 32 39 32 39 12 42 38 41 56 51 44 28 37 48 55 54 60 65 64 59 54 47 42 37 31 27 23 16 15 23 29 31 25 18 13 6 4
8 5 13 18 35 40 37 37 22 33 22 15 31 19 33 46 49 39 35 43 53 58 56 64 67 63 62 55 49 45 39 33 27 20 16 21 24 30 29 21 16 16 8 8
8 7 10 7 6 26 42 46 31 29 19 22 11 35 55 69 55 32 40 47 57 57 55 62 61 62 56 52 52 45 37 31 24 16 19 22 30 30 24 21 15 11 3 3
7 11 16 25 6 10 10 9 16 7 15 15 28 39 56 52 35 23 42 46 55 52 54 59 59 57 55 54 51 42 37 29 21 15 19 21 30 31 24 22 17 10 3 3
7 7 7 3 16 27 20 9 14 13 15 18 25 14 14 10 28 19 32 41 50 53 53 58 60 55 53 53 49 42 36 29 18 16 17 16 26 29 23 23 16 10 5 11
19 9 9 9 28 32 10 1 9 13 25 23 14 22 51 46 28 27 22 41 46 54 54 57 58 57 55 52 47 39 32 25 19 20 16 16 20 26 23 24 19 14 11 15
6 5 6 30 28 9 16 8 14 22 31 42 47 49 41 31 24 26 34 43 46 53 56 57 56 57 57 51 43 37 33 24 21 22 20 18 18 19 22 22 20 19 16 18
5 5 14 31 25 46 48 21 19 33 50 47 50 44 32 22 22 28 46 53 52 55 58 60 58 55 55 47 44 40 35 28 25 22 22 16 17 16 17 19 19 21 21 17
14 4 14 36 34 44 28 25 39 44 49 44 39 27 15 9 14 31 52 58 56 53 57 62 61 56 45 43 46 42 37 31 27 24 23 17 16 12 8 11 20 23 24 21
10 11 33 14 54 36 44 49 55 44 28 27 16 7 14 12 12 30 53 52 48 54 55 59 59 55 48 44 47 43 38 34 32 26 23 19 18 14 6 5 5 10 17 18
8 38 24 33 45 38 36 55 64 61 41 24 16 24 38 37 33 32 39 40 45 43 49 60 57 50 51 48 46 45 41 39 36 31 24 20 20 20 14 10 9 8 5 6
13 47 42 36 41 41 46 59 72 57 45 15 36 37 50 49 43 43 36 37 29 33 43 54 55 48 49 50 47 46 40 38 39 37 27 22 23 24 21 15 9 8 8 6
31 35 31 42 28 40 39 40 47 52 48 30 55 46 44 48 44 47 37 25 25 35 40 42 52 51 49 50 48 46 41 34 37 39 33 23 19 21 22 14 7 7 8 6
33 28 25 28 39 39 34 32 34 48 48 57 55 54 56 46 49 51 44 29 25 35 38 33 40 48 54 52 49 46 44 37 36 38 35 27 18 23 22 19 8 3 12 11
24 29 38 48 45 40 29 29 36 42 52 57 55 50 47 48 53 62 53 48 27 24 30 39 47 48 50 57 54 48 44 40 31 35 39 34 26 24 28 22 16 9 15 11
24 34 36 43 46 48 36 29 29 31 39 49 52 51 37 45 52 55 52 52 46 35 19 19 38 48 49 52 56 54 50 45 42 34 37 39 33 26 24 27 24 18 14 14
14 16 20 29 41 45 43 37 36 35 36 32 34 42 42 47 47 40 41 41 42 43 41 33 10 27 41 52 54 51 48 45 44 42 39 39 40 35 25 26 27 26 24 21
10 16 18 28 37 44 42 40 40 39 26 22 23 30 33 40 40 39 33 36 35 36 42 44 35 15 11 29 46 47 42 42 40 40 39 40 40 41 37 30 28 26 25 26
6 13 13 18 25 38 39 40 36 33 30 16 16 19 26 30 31 35 38 44 45 42 35 32 25 28 18 10 18 26 37 40 41 35 31 32 36 40 42 38 31 28 28 30
8 13 15 15 19 30 36 37 33 29 24 23 15 19 21 23 25 23 25 32 39 34 30 25 24 24 23 14 15 11 23 34 35 28 25 27 31 34 37 41 42 39 37 38
7 11 13 11 17 25 30 33 32 30 33 26 22 15 13 13 18 26 26 26 25 24 26 28 27 22 19 20 24 21 19 23 28 25 23 24 27 30 30 34 39 42 45 47
7 8 11 11 16 24 27 34 37 41 36 32 28 30 30 23 19 14 19 24 20 17 19 24 23 18 14 15 24 27 28 25 25 21 16 18 23 24 23 24 26 28 32 35
12 6 8 13 14 19 29 35 41 45 47 43 35 32 30 33 29 28 25 19 15 15 19 23 22 22 22 28 34 39 38 39 36 34 30 25 25 21 15 12 13 13 14 17
16 8 8 12 13 19 23 27 34 37 43 46 44 40 35 33 32 28 24 21 21 24 29 26 29 33 40 46 48 48 51 51 49 50 50 45 43 43 42 38 35 31 22 17
22 17 12 10 12 16 17 17 26 33 37 44 47 45 44 42 38 31 24 23 26 30 34 35 39 43 48 48 50 53 54 53 55 54 50 47 46 45 45 43 40 38 37 32
27 23 22 18 12 12 15 17 19 29 32 37 45 49 52 53 53 51 45 43 42 40 42 41 39 41 42 43 42 41 41 44 45 46 47 44 45 42 39 37 34 31 29 28
Wind_Direction_500mb
257 271 277 268 263 263 251 240 237 281 278 280 300 311 308 303 305 326 231 202 183 178 177 171 169 168 167 168 169 168 163 158 156 164 177 194 191 173 168 166 167 164 146 114
253 256 248 254 251 250 253 247 256 259 267 249 282 299 306 301 304 315 230 210 194 183 183 177 172 171 170 169 170 166 163 158 170 182 183 186 174 174 174 172 176 173 184 316
258 16 333 274 243 232 244 241 237 242 250 249 270 289 288 296 299 297 229 209 198 190 188 184 176 174 171 170 165 158 160 174 184 183 186 176 170 167 172 183 175 179 217 314
264 11 252 241 16 296 240 247 219 251 270 260 270 283 288 285 265 274 230 204 200 193 188 190 180 172 169 170 165 170 181 189 189 189 182 184 181 174 180 186 179 185 257 347
234 208 290 302 33 333 334 287 222 215 275 298 305 312 286 260 234 253 223 218 200 197 190 188 182 173 169 168 171 181 192 191 180 181 187 185 185 187 193 188 186 195 218 140
191 241 261 32 340 317 302 245 52 17 310 293 297 256 250 254 227 237 212 210 198 194 192 189 183 180 173 170 176 183 190 185 185 188 186 179 182 186 192 192 190 204 202 162
248 253 265 7 317 306 241 87 3 326 310 310 284 274 290 288 258 233 210 201 197 192 190 188 183 183 183 182 181 179 186 188 191 193 184 176 178 194 199 195 199 201 183 168
293 266 328 346 328 327 343 292 339 320 328 317 298 299 302 279 253 229 211 189 194 192 188 185 182 186 191 188 180 184 179 187 188 195 188 185 182 184 194 200 202 197 186 177
249 266 264 301 262 299 293 321 327 318 321 310 308 310 305 283 256 237 206 190 191 189 186 187 187 189 191 188 190 186 183 189 190 191 186 189 190 192 197 198 206 206 191 195
309 201 290 322 312 319 331 318 320 323 314 317 305 315 318 305 239 212 192 187 189 187 191 190 193 196 192 188 192 188 187 196 195 194 187 191 192 200 212 210 204 203 201 202
269 311 329 292 310 339 350 341 339 353 326 313 325 38 64 72 144 185 184 181 190 189 195 196 196 198 197 193 194 189 189 199 198 195 192 190 187 186 157 142 173 209 213 215
307 305 303 293 327 10 354 353 350 4 0 2 63 83 79 76 90 141 168 173 189 186 198 201 195 196 201 198 194 189 194 203 202 195 190 191 187 177 168 151 127 118 127 185
298 314 321 340 14 25 18 7 5 355 355 342 72 94 83 71 75 100 123 153 176 201 208 203 196 197 199 199 196 195 201 212 208 203 195 190 188 186 186 176 160 134 128 150
5 353 353 11 9 28 28 15 351 15 4 32 74 77 93 70 79 73 83 112 182 192 204 202 201 201 199 200 200 202 209 219 218 211 205 198 193 186 188 189 171 182 168 159
16 31 24 22 29 33 31 24 13 15 10 53 63 63 81 70 71 71 71 82 116 167 179 187 203 207 202 201 203 205 212 219 220 216 213 209 197 190 188 188 195 268 192 184
21 38 39 39 34 26 26 22 25 17 32 49 73 70 65 79 75 74 73 75 96 111 150 181 194 202 204 208 208 207 212 220 222 223 221 214 208 205 203 206 209 212 195 184
13 23 25 27 27 26 25 19 26 20 33 45 56 70 69 63 74 68 61 62 64 76 105 167 182 196 206 208 212 213 215 217 220 221 226 225 218 212 211 209 212 212 211 215
15 30 39 31 25 20 18 21 23 22 29 43 56 68 70 74 74 80 83 87 83 76 76 74 84 188 201 207 207 214 219 221 223 224 226 230 228 224 218 217 218 220 222 226
38 35 33 23 20 22 22 19 25 19 23 46 73 74 76 77 77 80 80 81 77 77 66 62 58 28 224 214 214 206 216 227 227 229 233 236 235 233 230 226 224 223 224 229
49 48 38 26 15 23 29 29 27 32 25 44 75 90 91 90 80 76 70 72 66 54 53 60 61 57 50 94 198 203 214 220 226 226 234 246 250 244 239 238 237 231 230 237
67 45 26 28 29 28 28 28 30 41 40 44 55 67 74 81 85 85 80 73 72 69 64 58 64 77 67 63 86 138 205 219 224 216 236 254 262 264 259 251 249 251 254 255
114 48 40 49 27 35 34 30 30 43 47 60 66 66 83 74 79 77 75 70 65 63 66 62 56 54 66 72 87 111 136 182 201 204 220 239 247 252 254 257 257 259 263 268
146 60 36 43 32 34 41 48 51 53 57 64 66 67 65 61 61 75 69 59 62 61 63 69 62 57 62 88 92 92 97 101 116 130 164 208 230 236 237 248 256 261 264 266
170 139 77 65 46 45 56 60 57 59 60 62 66 63 63 68 69 72 73 67 64 82 91 93 96 103 106 100 101 102 102 101 97 98 107 127 124 129 137 175 215 237 247 252
181 170 125 96 63 62 69 70 63 63 64 63 62 66 67 72 74 71 80 83 91 95 98 109 109 108 104 100 98 95 94 96 97 99 100 99 98 96 95 97 96 95 95 89
191 176 145 106 75 77 80 89 74 67 70 74 74 71 71 73 74 79 83 90 91 94 94 95 97 98 97 97 94 92 90 89 87 84 84 83 83 82 80 78 74 71 71 68
186 182 174 159 131 96 93 87 84 80 73 77 80 80 80 80 82 84 86 88 89 91 93 90 88 87 88 88 88 87 84 80 75 76 76 74 71 68 63 60 57 52 47 40
Wind_Speed_850mb
16 24 23 25 29 27 24 20 16 9 14 8 36 31 34 53 57 58 21 28 39 53 54 57 60 61 59 54 48 42 41 31 27 22 19 16 18 29 28 26 21 15 10 3
16 24 29 32 30 32 37 32 39 32 39 12 42 38 41 56 51 44 28 37 48 55 54 60 65 64 59 54 47 42 37 31 27 23 16 15 23 29 31 25 18 13 6 4
8 5 13 18 35 40 37 37 22 33 22 15 31 19 33 46 49 39 35 43 53 58 56 64 67 63 62 55 49 45 39 33 27 20 16 21 24 30 29 21 16 16 8 8
8 7 10 7 6 26 42 46 31 29 19 22 11 35 55 69 55 32 40 47 57 57 55 62 61 62 56 52 52 45 37 31 24 16 19 22 30 30 24 21 15 11 3 3
7 11 16 25 6 10 10 9 16 7 15 15 28 39 56 52 35 23 42 46 55 52 54 59 59 57 55 54 51 42 37 29 21 15 19 21 30 31 24 22 17 10 3 3
7 7 7 3 16 27 20 9 14 13 15 18 25 14 14 10 28 19 32 41 50 53 53 58 60 55 53 53 49 42 36 29 18 16 17 16 26 29 23 23 16 10 5 11
19 9 9 9 28 32 10 1 9 13 25 23 14 22 51 46 28 27 22 41 46 54 54 57 58 57 55 52 47 39 32 25 19 20 16 16 20 26 23 24 19 14 11 15
6 5 6 30 28 9 16 8 14 22 31 42 47 49 41 31 24 26 34 43 46 53 56 57 56 57 57 51 43 37 33 24 21 22 20 18 18 19 22 22 20 19 16 18
5 5 14 31 25 46 48 21 19 33 50 47 50 44 32 22 22 28 46 53 52 55 58 60 58 55 55 47 44 40 35 28 25 22 22 16 17 16 17 19 19 21 21 17
14 4 14 36 34 44 28 25 39 44 49 44 39 27 15 9 14 31 52 58 56 53 57 62 61 56 45 43 46 42 37 31 27 24 23 17 16 12 8 11 20 23 24 21
10 11 33 14 54 36 44 49 55 44 28 27 16 7 14 12 12 30 53 52 48 54 55 59 59 55 48 44 47 43 38 34 32 26 23 19 18 14 6 5 5 10 17 18
8 38 24 33 45 38 36 55 64 61 41 24 16 24 38 37 33 32 39 40 45 43 49 60 57 50 51 48 46 45 41 39 36 31 24 20 20 20 14 10 9 8 5 6
13 47 42 36 41 41 46 59 72 57 45 15 36 37 50 49 43 43 36 37 29 33 43 54 55 48 49 50 47 46 40 38 39 37 27 22 23 24 21 15 9 8 8 6
31 35 31 42 28 40 39 40 47 52 48 30 55 46 44 48 44 47 37 25 25 35 40 42 52 51 49 50 48 46 41 34 37 39 33 23 19 21 22 14 7 7 8 6
33 28 25 28 39 39 34 32 34 48 48 57 55 54 56 46 49 51 44 29 25 35 38 33 40 48 54 52 49 46 44 37 36 38 35 27 18 23 22 19 8 3 12 11
24 29 38 48 45 40 29 29 36 42 52 57 55 50 47 48 53 62 53 48 27 24 30 39 47 48 50 57 54 48 44 40 31 35 39 34 26 24 28 22 16 9 15 11
24 34 36 43 46 48 36 29 29 31 39 49 52 51 37 45 52 55 52 52 46 35 19 19 38 48 49 52 56 54 50 45 42 34 37 39 33 26 24 27 24 18 14 14
14 16 20 29 41 45 43 37 36 35 36 32 34 42 42 47 47 40 41 41 42 43 41 33 10 27 41 52 54 51 48 45 44 42 39 39 40 35 25 26 27 26 24 21
10 16 18 28 37 44 42 40 40 39 26 22 23 30 33 40 40 39 33 36 35 36 42 44 35 15 11 29 46 47 42 42 40 40 39 40 40 41 37 30 28 26 25 26
6 13 13 18 25 38 39 40 36 33 30 16 16 19 26 30 31 35 38 44 45 42 35 32 25 28 18 10 18 26 37 40 41 35 31 32 36 40 42 38 31 28 28 30
8 13 15 15 19 30 36 37 33 29 24 23 15 19 21 23 25 23 25 32 39 34 30 25 24 24 23 14 15 11 23 34 35 28 25 27 31 34 37 41 42 39 37 38
7 11 13 11 17 25 30 33 32 30 33 26 22 15 13 13 18 26 26 26 25 24 26 28 27 22 19 20 24 21 19 23 28 25 23 24 27 30 30 34 39 42 45 47
7 8 11 11 16 24 27 34 37 41 36 32 28 30 30 23 19 14 19 24 20 17 19 24 23 18 14 15 24 27 28 25 25 21 16 18 23 24 23 24 26 28 32 35
12 6 8 13 14 19 29 35 41 45 47 43 35 32 30 33 29 28 25 19 15 15 19 23 22 22 22 28 34 39 38 39 36 34 30 25 25 21 15 12 13 13 14 17
16 8 8 12 13 19 23 27 34 37 43 46 44 40 35 33 32 28 24 21 21 24 29 26 29 33 40 46 48 48 51 51 49 50 50 45 43 43 42 38 35 31 22 17
22 17 12 10 12 16 17 17 26 33 37 44 47 45 44 42 38 31 24 23 26 30 34 35 39 43 48 48 50 53 54 53 55 54 50 47 46 45 45 43 40 38 37 32
27 23 22 18 12 12 15 17 19 29 32 37 45 49 52 53 53 51 45 43 42 40 42 41 39 41 42 43 42 41 41 44 45 46 47 44 45 42 39 37 34 31 29 28
Wind_Direction_850mb
257 271 277 268 263 263 251 240 237 281 278 280 300 311 308 303 305 326 231 202 183 178 177 171 169 168 167 168 169 168 163 158 156 164 177 194 191 173 168 166 167 164 146 114
253 256 248 254 251 250 253 247 256 259 267 249 282 299 306 301 304 315 230 210 194 183 183 177 172 171 170 169 170 166 163 158 170 182 183 186 174 174 174 172 176 173 184 316
258 16 333 274 243 232 244 241 237 242 250 249 270 289 288 296 299 297 229 209 198 190 188 184 176 174 171 170 165 158 160 174 184 183 186 176 170 167 172 183 175 179 217 314
264 11 252 241 16 296 240 247 219 251 270 260 270 283 288 285 265 274 230 204 200 193 188 190 180 172 169 170 165 170 181 189 189 189 182 184 181 174 180 186 179 185 257 347
234 208 290 302 33 333 334 287 222 215 275 298 305 312 286 260 234 253 223 218 200 197 190 188 182 173 169 168 171 181 192 191 180 181 187 185 185 187 193 188 186 195 218 140
191 241 261 32 340 317 302 245 52 17 310 293 297 256 250 254 227 237 212 210 198 194 192 189 183 180 173 170 176 183 190 185 185 188 186 179 182 186 192 192 190 204 202 162
248 253 265 7 317 306 241 87 3 326 310 310 284 274 290 288 258 233 210 201 197 192 190 188 183 183 183 182 181 179 186 188 191 193 184 176 178 194 199 195 199 201 183 168
293 266 328 346 328 327 343 292 339 320 328 317 298 299 302 279 253 229 211 189 194 192 188 185 182 186 191 188 180 184 179 187 188 195 188 185 182 184 194 200 202 197 186 177
249 266 264 301 262 299 293 321 327 318 321 310 308 310 305 283 256 237 206 190 191 189 186 187 187 189 191 188 190 186 183 189 190 191 186 189 190 192 197 198 206 206 191 195
309 201 290 322 312 319 331 318 320 323 314 317 305 315 318 305 239 212 192 187 189 187 191 190 193 196 192 188 192 188 187 196 195 194 187 191 192 200 212 210 204 203 201 202
269 311 329 292 310 339 350 341 339 353 326 313 325 38 64 72 144 185 184 181 190 189 195 196 196 198 197 193 194 189 189 199 198 195 192 190 187 186 157 142 173 209 213 215
307 305 303 293 327 10 354 353 350 4 0 2 63 83 79 76 90 141 168 173 189 186 198 201 195 196 201 198 194 189 194 203 202 195 190 191 187 177 168 151 127 118 127 185
298 314 321 340 14 25 18 7 5 355 355 342 72 94 83 71 75 100 123 153 176 201 208 203 196 197 199 199 196 195 201 212 208 203 195 190 188 186 186 176 160 134 128 150
5 353 353 11 9 28 28 15 351 15 4 32 74 77 93 70 79 73 83 112 182 192 204 202 201 201 199 200 200 202 209 219 218 211 205 198 193 186 188 189 171 182 168 159
16 31 24 22 29 33 31 24 13 15 10 53 63 63 81 70 71 71 71 82 116 167 179 187 203 207 202 201 203 205 212 219 220 216 213 209 197 190 188 188 195 268 192 184
21 38 39 39 34 26 26 22 25 17 32 49 73 70 65 79 75 74 73 75 96 111 150 181 194 202 204 208 208 207 212 220 222 223 221 214 208 205 203 206 209 212 195 184
13 23 25 27 27 26 25 19 26 20 33 45 56 70 69 63 74 68 61 62 64 76 105 167 182 196 206 208 212 213 215 217 220 221 226 225 218 212 211 209 212 212 211 215
15 30 39 31 25 20 18 21 23 22 29 43 56 68 70 74 74 80 83 87 83 76 76 74 84 188 201 207 207 214 219 221 223 224 226 230 228 224 218 217 218 220 222 226
38 35 33 23 20 22 22 19 25 19 23 46 73 74 76 77 77 80 80 81 77 77 66 62 58 28 224 214 214 206 216 227 227 229 233 236 235 233 230 226 224 223 224 229
49 48 38 26 15 23 29 29 27 32 25 44 75 90 91 90 80 76 70 72 66 54 53 60 61 57 50 94 198 203 214 220 226 226 234 246 250 244 239 238 237 231 230 237
67 45 26 28 29 28 28 28 30 41 40 44 55 67 74 81 85 85 80 73 72 69 64 58 64 77 67 63 86 138 205 219 224 216 236 254 262 264 259 251 249 251 254 255
114 48 40 49 27 35 34 30 30 43 47 60 66 66 83 74 79 77 75 70 65 63 66 62 56 54 66 72 87 111 136 182 201 204 220 239 247 252 254 257 257 259 263 268
146 60 36 43 32 34 41 48 51 53 57 64 66 67 65 61 61 75 69 59 62 61 63 69 62 57 62 88 92 92 97 101 116 130 164 208 230 236 237 248 256 261 264 266
170 139 77 65 46 45 56 60 57 59 60 62 66 63 63 68 69 72 73 67 64 82 91 93 96 103 106 100 101 102 102 101 97 98 107 127 124 129 137 175 215 237 247 252
181 170 125 96 63 62 69 70 63 63 64 63 62 66 67 72 74 71 80 83 91 95 98 109 109 108 104 100 98 95 94 96 97 99 100 99 98 96 95 97 96 95 95 89
191 176 145 106 75 77 80 89 74 67 70 74 74 71 71 73 74 79 83 90 91 94 94 95 97 98 97 97 94 92 90 89 87 84 84 83 83 82 80 78 74 71 71 68
186 182 174 159 131 96 93 87 84 80 73 77 80 80 80 80 82 84 86 88 89 91 93 90 88 87 88 88 88 87 84 80 75 76 76 74 71 68 63 60 57 52 47 40